Location: Shepherdstown, WV
(39.4326°N, 77.8042°W)
Time: 05:40:38
(UTC-04:00)

Vanguard 1 - Pass Details

Date: 01 August 2021
Orbit: 652 x 3831 km, 34.3° (Epoch: 24 September)

Event Time Altitude Azimuth Distance (km) Brightness Sun altitude
Rises 18:10:30 0° 271° (W) 4,709 15.0 24.0°
Reaches altitude 10° 18:13:57 10° 257° (WSW) 4,137 14.9 23.3°
Maximum altitude 18:22:43 25° 209° (SSW) 4,023 13.6 21.6°
Drops below altitude 10° 18:35:38 10° 164° (SSE) 6,216 14.0 19.1°
Sets 18:42:44 0° 153° (SSE) 7,643 14.3 17.8°
